Location: Boda
(47.1872°N, 9.5454°E)
Time: 18:02:18
(UTC+00:00)

Cosmos 1953 - Pass Details

Date: 14 May 2021
Orbit: 539 x 556 km, 82.5° (Epoch: 16 June)

Event Time Altitude Azimuth Distance (km) Brightness Sun altitude
Rises 01:35:14 0° 345° (NNW) 2,713 6.5 -17.3°
Reaches altitude 10° 01:37:27 10° 340° (NNW) 1,817 5.4 -17.1°
Maximum altitude 01:41:17 47° 266° (W) 731 2.6 -16.7°
Enters shadow 01:42:28 35° 219° (SW) 891 2.8 -16.6°
